Tracking 29069 objects as of 18-Jul-2024
HD Live streaming from Space Station
objects crossing your sky now

NOAA 17 DEB

Track NOAA 17 DEB now!
10-day predictions


NORAD ID: 48725
Int'l Code: 2002-032BK
Perigee: 762.9 km
Apogee: 868.3 km
Inclination: 98.7 °
Period: 101.1 minutes
Semi major axis: 7186 km
RCS: Unknown
Launch date: June 24, 2002
Source: United States (US)
Launch site: AIR FORCE WESTERN TEST RANGE (AFWTR)

Note: This is SATELLITE DEBRIS
Your satellite tracking list
Your tracking list is empty




NASA's NSSDC Master Catalog

Two Line Element Set (TLE):
1 48725U 02032BJ  24198.54362849  .00014155  00000-0  58859-2 0  9991
2 48725  98.6975 128.1454 0073326 261.3724  97.9143 14.25017497171959
Source of the keplerian elements: AFSPC